| time (UTC) | temp F | wind direction | speed MPH | gust MPH | rain 1hr in | rain 24hr in | rain mn in | humidity % | barometer mb |
| 20260904090516 | 76 | 0.0 | 2.0 | 0.00 | 0.00 | 0.00 | 73 | 1024.7 | |
| 20260904085516 | 76 | 0.0 | 2.0 | 0.00 | 0.00 | 0.00 | 73 | 1024.8 | |
| 20260904084516 | 75 | 158 | 2.0 | 3.0 | 0.00 | 0.00 | 0.00 | 73 | 1024.7 |
| 20260904083516 | 75 | 158 | 3.0 | 5.0 | 0.00 | 0.00 | 0.00 | 73 | 1024.8 |
| 20260904082516 | 76 | 158 | 2.0 | 3.0 | 0.00 | 0.00 | 0.00 | 72 | 1024.7 |
| 20260904081516 | 76 | 0.0 | 2.0 | 0.00 | 0.00 | 0.00 | 72 | 1024.7 | |
| 20260904080516 | 76 | 158 | 1.0 | 3.0 | 0.00 | 0.00 | 0.00 | 71 | 1024.8 |
| 20260904075516 | 76 | 0.0 | 1.0 | 0.00 | 0.00 | 0.00 | 71 | 1024.9 | |
| 20260904074516 | 77 | 135 | 1.0 | 2.0 | 0.00 | 0.00 | 0.00 | 70 | 1024.7 |
| 20260904073516 | 77 | 0.0 | 0.0 | 0.00 | 0.00 | 0.00 | 69 | 1024.6 | |
| 20260904072516 | 77 | 135 | 1.0 | 3.0 | 0.00 | 0.00 | 0.00 | 69 | 1024.6 |
| 20260904071516 | 77 | 0.0 | 1.0 | 0.00 | 0.00 | 0.00 | 69 | 1024.6 | |
| 20260904070516 | 77 | 0.0 | 2.0 | 0.00 | 0.00 | 0.00 | 69 | 1024.7 | |
| 20260904065516 | 77 | 0.0 | 0.0 | 0.00 | 0.00 | 0.00 | 69 | 1024.7 | |
| 20260904064516 | 77 | 0.0 | 0.0 | 0.00 | 0.00 | 0.00 | 69 | 1024.7 | |
| 20260904062516 | 77 | 0.0 | 0.0 | 0.00 | 0.00 | 0.00 | 68 | 1024.8 | |
| 20260904061516 | 77 | 0.0 | 0.0 | 0.00 | 0.00 | 0.00 | 67 | 1024.5 | |
| 20260904060516 | 78 | 23 | 2.0 | 3.0 | 0.00 | 0.00 | 0.00 | 67 | 1024.5 |
| 20260904055536 | 78 | 45 | 1.0 | 3.0 | 0.00 | 0.00 | 0.00 | 67 | 1024.7 |
| 20260904054536 | 78 | 45 | 2.0 | 3.0 | 0.00 | 0.00 | 0.00 | 66 | 1024.4 |
| 20260904053516 | 78 | 45 | 1.0 | 3.0 | 0.00 | 0.00 | 0.00 | 66 | 1024.4 |
| 20260904052516 | 79 | 0.0 | 1.0 | 0.00 | 0.00 | 0.00 | 65 | 1024.4 | |
| 20260904051516 | 79 | 0.0 | 0.0 | 0.00 | 0.00 | 0.00 | 64 | 1024.5 | |
| 20260904050516 | 79 | 203 | 1.0 | 2.0 | 0.00 | 0.00 | 0.00 | 63 | 1024.5 |
| 20260904045516 | 80 | 180 | 1.0 | 2.0 | 0.00 | 0.00 | 0.00 | 63 | 1024.6 |
| 20260904044516 | 80 | 45 | 4.0 | 7.0 | 0.00 | 0.00 | 0.00 | 63 | 1024.5 |
| 20260904043516 | 80 | 45 | 5.0 | 8.0 | 0.00 | 0.00 | 0.00 | 63 | 1024.5 |
| 20260904042516 | 80 | 45 | 6.0 | 11.0 | 0.00 | 0.00 | 0.00 | 63 | 1024.5 |
| 20260904041516 | 80 | 68 | 10.0 | 14.0 | 0.00 | 0.00 | 0.00 | 63 | 1024.3 |
| 20260904040516 | 80 | 45 | 9.0 | 13.0 | 0.00 | 0.00 | 0.00 | 62 | 1024.4 |
| 20260904035516 | 81 | 45 | 7.0 | 11.0 | 0.00 | 0.00 | 0.00 | 61 | 1024.5 |
| 20260904034516 | 81 | 68 | 9.0 | 14.0 | 0.00 | 0.00 | 0.00 | 60 | 1024.3 |
| 20260904033516 | 81 | 45 | 10.0 | 16.0 | 0.00 | 0.00 | 0.00 | 60 | 1024.2 |
| 20260904032516 | 82 | 45 | 10.0 | 19.0 | 0.00 | 0.00 | 0.00 | 59 | 1024.2 |
| 20260904031516 | 82 | 45 | 9.0 | 16.0 | 0.00 | 0.00 | 0.00 | 57 | 1023.9 |
| 20260904030536 | 82 | 45 | 9.0 | 14.0 | 0.00 | 0.00 | 0.00 | 57 | 1023.8 |
| 20260904025516 | 83 | 0 | 4.0 | 9.0 | 0.00 | 0.00 | 0.00 | 57 | 1023.9 |
| 20260904024516 | 83 | 0.0 | 0.0 | 0.00 | 0.00 | 0.00 | 56 | 1023.5 | |
| 20260904023516 | 83 | 45 | 1.0 | 3.0 | 0.00 | 0.00 | 0.00 | 56 | 1023.2 |
| 20260904022516 | 83 | 68 | 1.0 | 3.0 | 0.00 | 0.00 | 0.00 | 56 | 1023.1 |
| 20260904021536 | 84 | 90 | 1.0 | 3.0 | 0.00 | 0.00 | 0.00 | 55 | 1023.1 |
| 20260904020516 | 84 | 0.0 | 0.0 | 0.00 | 0.00 | 0.00 | 55 | 1023.1 | |
| 20260904015516 | 84 | 270 | 1.0 | 2.0 | 0.00 | 0.00 | 0.00 | 54 | 1022.9 |
| 20260904014516 | 85 | 203 | 1.0 | 3.0 | 0.00 | 0.00 | 0.00 | 54 | 1023.0 |
| 20260904013536 | 86 | 158 | 5.0 | 11.0 | 0.00 | 0.00 | 0.00 | 53 | 1022.9 |
| 20260904012516 | 87 | 203 | 7.0 | 13.0 | 0.00 | 0.00 | 0.00 | 52 | 1022.9 |
| 20260904011516 | 87 | 203 | 6.0 | 11.0 | 0.00 | 0.00 | 0.00 | 50 | 1022.6 |
| 20260904010536 | 88 | 180 | 11.0 | 15.0 | 0.00 | 0.00 | 0.00 | 49 | 1022.5 |
| 20260904005516 | 89 | 203 | 9.0 | 16.0 | 0.00 | 0.00 | 0.00 | 49 | 1022.6 |
| 20260904004516 | 89 | 203 | 7.0 | 11.0 | 0.00 | 0.00 | 0.00 | 46 | 1022.6 |
| 20260904003516 | 90 | 203 | 6.0 | 9.0 | 0.00 | 0.00 | 0.00 | 46 | 1022.6 |
| 20260904002516 | 90 | 180 | 8.0 | 13.0 | 0.00 | 0.00 | 0.00 | 46 | 1022.4 |
| 20260904001516 | 90 | 203 | 8.0 | 13.0 | 0.00 | 0.00 | 0.00 | 47 | 1022.3 |
| 20260904000556 | 90 | 225 | 9.0 | 14.0 | 0.00 | 0.00 | 0.00 | 46 | 1022.5 |
| 20260903235516 | 90 | 248 | 6.0 | 11.0 | 0.00 | 0.00 | 0.00 | 44 | 1022.4 |
| 20260903234516 | 90 | 248 | 7.0 | 10.0 | 0.00 | 0.00 | 0.00 | 44 | 1022.4 |
| 20260903233516 | 90 | 248 | 6.0 | 9.0 | 0.00 | 0.00 | 0.00 | 43 | 1022.4 |
| 20260903232516 | 91 | 270 | 4.0 | 8.0 | 0.00 | 0.00 | 0.00 | 42 | 1022.3 |
| 20260903231536 | 91 | 225 | 4.0 | 8.0 | 0.00 | 0.00 | 0.00 | 41 | 1022.4 |
| 20260903230516 | 91 | 270 | 4.0 | 9.0 | 0.00 | 0.00 | 0.00 | 41 | 1022.4 |
| 20260903225516 | 93 | 248 | 4.0 | 8.0 | 0.00 | 0.00 | 0.00 | 40 | 1022.5 |
| 20260903224556 | 93 | 203 | 4.0 | 10.0 | 0.00 | 0.00 | 0.00 | 39 | 1022.4 |
| 20260903223516 | 92 | 270 | 5.0 | 10.0 | 0.00 | 0.00 | 0.00 | 40 | 1022.5 |
| 20260903222516 | 92 | 248 | 3.0 | 6.0 | 0.00 | 0.00 | 0.00 | 40 | 1022.5 |
| 20260903221516 | 92 | 225 | 5.0 | 9.0 | 0.00 | 0.00 | 0.00 | 40 | 1022.6 |
| 20260903220536 | 93 | 203 | 4.0 | 10.0 | 0.00 | 0.00 | 0.00 | 39 | 1022.9 |
| 20260903215516 | 93 | 270 | 5.0 | 11.0 | 0.00 | 0.00 | 0.00 | 40 | 1022.9 |
| 20260903214516 | 92 | 248 | 5.0 | 9.0 | 0.00 | 0.00 | 0.00 | 39 | 1023.0 |
| 20260903213536 | 93 | 248 | 5.0 | 7.0 | 0.00 | 0.00 | 0.00 | 39 | 1023.2 |
| 20260903212556 | 93 | 248 | 6.0 | 10.0 | 0.00 | 0.00 | 0.00 | 39 | 1023.3 |
| 20260903211515 | 93 | 180 | 3.0 | 7.0 | 0.00 | 0.00 | 0.00 | 40 | 1023.4 |
| 20260903210536 | 92 | 203 | 3.0 | 7.0 | 0.00 | 0.00 | 0.00 | 42 | 1023.5 |
| 20260903205516 | 91 | 270 | 5.0 | 13.0 | 0.00 | 0.00 | 0.00 | 42 | 1023.6 |
| 20260903204617 | 91 | 225 | 3.0 | 4.0 | 0.00 | 0.00 | 0.00 | 44 | 1023.5 |
| 20260903204016 | 91 | 248 | 3.0 | 7.0 | 0.00 | 0.00 | 0.00 | 43 | 1023.8 |
| 20260903203016 | 91 | 180 | 3.0 | 7.0 | 0.00 | 0.00 | 0.00 | 43 | 1024.0 |
| 20260903202016 | 92 | 225 | 5.0 | 11.0 | 0.00 | 0.00 | 0.00 | 42 | 1024.1 |
| 20260903201015 | 92 | 248 | 3.0 | 9.0 | 0.00 | 0.00 | 0.00 | 43 | 1024.7 |
| 20260903200016 | 91 | 180 | 4.0 | 8.0 | 0.00 | 0.00 | 0.00 | 43 | 1024.8 |
| 20260903195016 | 90 | 203 | 4.0 | 10.0 | 0.00 | 0.00 | 0.00 | 44 | 1024.8 |
| 20260903194036 | 90 | 248 | 2.0 | 5.0 | 0.00 | 0.00 | 0.00 | 45 | 1025.0 |
| 20260903193016 | 89 | 225 | 4.0 | 9.0 | 0.00 | 0.00 | 0.00 | 47 | 1025.0 |
| 20260903192016 | 88 | 270 | 6.0 | 10.0 | 0.00 | 0.00 | 0.00 | 47 | 1025.1 |
| 20260903191036 | 88 | 225 | 4.0 | 12.0 | 0.00 | 0.00 | 0.00 | 47 | 1025.3 |
| 20260903190056 | 88 | 225 | 6.0 | 11.0 | 0.00 | 0.00 | 0.00 | 47 | 1025.5 |
| 20260903185015 | 88 | 225 | 5.0 | 10.0 | 0.00 | 0.00 | 0.00 | 48 | 1025.6 |
| 20260903184036 | 88 | 180 | 3.0 | 9.0 | 0.00 | 0.00 | 0.00 | 47 | 1025.7 |
| 20260903183016 | 89 | 180 | 3.0 | 7.0 | 0.00 | 0.00 | 0.00 | 48 | 1025.9 |
| 20260903182016 | 88 | 293 | 3.0 | 7.0 | 0.00 | 0.00 | 0.00 | 48 | 1026.0 |
| 20260903181016 | 87 | 203 | 4.0 | 9.0 | 0.00 | 0.00 | 0.00 | 50 | 1026.3 |
| 20260903180036 | 87 | 293 | 3.0 | 6.0 | 0.00 | 0.00 | 0.00 | 50 | 1026.3 |
| 20260903175016 | 86 | 180 | 2.0 | 5.0 | 0.00 | 0.00 | 0.00 | 51 | 1026.5 |
| 20260903174015 | 86 | 270 | 2.0 | 6.0 | 0.00 | 0.00 | 0.00 | 52 | 1026.5 |
| 20260903173015 | 85 | 225 | 3.0 | 8.0 | 0.00 | 0.00 | 0.00 | 53 | 1026.4 |
| 20260903172015 | 85 | 270 | 1.0 | 3.0 | 0.00 | 0.00 | 0.00 | 52 | 1026.4 |
| 20260903171015 | 85 | 180 | 2.0 | 8.0 | 0.00 | 0.00 | 0.00 | 54 | 1026.4 |
| 20260903170056 | 84 | 248 | 3.0 | 6.0 | 0.00 | 0.00 | 0.00 | 54 | 1026.4 |
| 20260903165036 | 84 | 203 | 3.0 | 6.0 | 0.00 | 0.00 | 0.00 | 56 | 1026.5 |
| 20260903164015 | 83 | 225 | 2.0 | 5.0 | 0.00 | 0.00 | 0.00 | 57 | 1026.5 |
| 20260903163016 | 83 | 225 | 3.0 | 5.0 | 0.00 | 0.00 | 0.00 | 58 | 1026.3 |
| 20260903162036 | 82 | 270 | 1.0 | 2.0 | 0.00 | 0.00 | 0.00 | 59 | 1026.4 |
| 20260903161015 | 82 | 225 | 1.0 | 4.0 | 0.00 | 0.00 | 0.00 | 60 | 1026.5 |
| 20260903160035 | 81 | 225 | 1.0 | 4.0 | 0.00 | 0.00 | 0.00 | 61 | 1026.4 |
| 20260903155015 | 81 | 203 | 2.0 | 5.0 | 0.00 | 0.00 | 0.00 | 61 | 1026.4 |
| 20260903154036 | 81 | 203 | 2.0 | 4.0 | 0.00 | 0.00 | 0.00 | 62 | 1026.4 |
| 20260903153035 | 81 | 225 | 2.0 | 4.0 | 0.00 | 0.00 | 0.00 | 62 | 1026.4 |
| 20260903152015 | 80 | 203 | 2.0 | 4.0 | 0.00 | 0.00 | 0.00 | 63 | 1026.4 |
| 20260903151056 | 80 | 180 | 1.0 | 4.0 | 0.00 | 0.00 | 0.00 | 64 | 1026.4 |
| 20260903150037 | 80 | 158 | 2.0 | 4.0 | 0.00 | 0.00 | 0.00 | 65 | 1026.4 |
| 20260903145037 | 79 | 158 | 2.0 | 4.0 | 0.00 | 0.00 | 0.00 | 66 | 1026.2 |
| 20260903144017 | 79 | 158 | 3.0 | 5.0 | 0.00 | 0.00 | 0.00 | 66 | 1026.4 |
| 20260903143018 | 78 | 113 | 4.0 | 7.0 | 0.00 | 0.00 | 0.00 | 68 | 1026.4 |
| 20260903142017 | 78 | 135 | 4.0 | 5.0 | 0.00 | 0.00 | 0.00 | 68 | 1026.5 |
| 20260903141017 | 78 | 135 | 4.0 | 7.0 | 0.00 | 0.00 | 0.00 | 68 | 1026.4 |
| 20260903140017 | 77 | 158 | 4.0 | 6.0 | 0.00 | 0.00 | 0.00 | 69 | 1026.3 |
| 20260903135017 | 77 | 158 | 2.0 | 4.0 | 0.00 | 0.00 | 0.00 | 70 | 1026.3 |
| 20260903134017 | 77 | 0.0 | 0.0 | 0.00 | 0.00 | 0.00 | 71 | 1026.4 | |
| 20260903133017 | 77 | 0.0 | 0.0 | 0.00 | 0.00 | 0.00 | 71 | 1026.2 | |
| 20260903132017 | 77 | 0.0 | 1.0 | 0.00 | 0.00 | 0.00 | 71 | 1026.2 | |
| 20260903131018 | 77 | 90 | 1.0 | 2.0 | 0.00 | 0.00 | 0.00 | 70 | 1026.2 |
| 20260903130037 | 77 | 158 | 2.0 | 4.0 | 0.00 | 0.00 | 0.00 | 70 | 1026.2 |
| 20260903125017 | 77 | 203 | 2.0 | 4.0 | 0.00 | 0.00 | 0.00 | 70 | 1026.1 |
| 20260903124017 | 77 | 270 | 1.0 | 4.0 | 0.00 | 0.00 | 0.00 | 70 | 1025.9 |
| 20260903123017 | 77 | 0.0 | 2.0 | 0.00 | 0.00 | 0.00 | 71 | 1025.7 | |
| 20260903122017 | 77 | 0.0 | 2.0 | 0.00 | 0.00 | 0.00 | 70 | 1025.6 | |
| 20260903121037 | 76 | 0.0 | 1.0 | 0.00 | 0.00 | 0.00 | 71 | 1025.5 | |
| 20260903120017 | 77 | 0.0 | 1.0 | 0.00 | 0.00 | 0.00 | 72 | 1025.5 | |
| 20260903115037 | 77 | 0.0 | 2.0 | 0.00 | 0.00 | 0.00 | 72 | 1025.4 | |
| 20260903114017 | 76 | 0.0 | 0.0 | 0.00 | 0.00 | 0.00 | 72 | 1025.5 | |
| 20260903113037 | 76 | 0.0 | 0.0 | 0.00 | 0.00 | 0.00 | 72 | 1025.4 | |
| 20260903112017 | 76 | 0.0 | 0.0 | 0.00 | 0.00 | 0.00 | 72 | 1025.4 | |
| 20260903111017 | 76 | 0.0 | 2.0 | 0.00 | 0.00 | 0.00 | 71 | 1025.5 | |
| 20260903110037 | 76 | 0.0 | 0.0 | 0.00 | 0.00 | 0.00 | 72 | 1025.5 | |
| 20260903105017 | 76 | 0 | 1.0 | 2.0 | 0.00 | 0.00 | 0.00 | 71 | 1025.6 |
| 20260903104037 | 77 | 45 | 1.0 | 2.0 | 0.00 | 0.00 | 0.00 | 71 | 1025.5 |
| 20260903103017 | 77 | 45 | 2.0 | 3.0 | 0.00 | 0.00 | 0.00 | 70 | 1025.6 |
| 20260903102017 | 77 | 45 | 1.0 | 4.0 | 0.00 | 0.00 | 0.00 | 71 | 1025.6 |
| 20260903101037 | 77 | 23 | 1.0 | 2.0 | 0.00 | 0.00 | 0.00 | 71 | 1025.8 |
| 20260903100037 | 77 | 0.0 | 0.0 | 0.00 | 0.00 | 0.00 | 71 | 1025.9 | |
| 20260903095037 | 77 | 0.0 | 0.0 | 0.00 | 0.00 | 0.00 | 71 | 1025.9 | |
| 20260903094017 | 77 | 0.0 | 0.0 | 0.00 | 0.00 | 0.00 | 71 | 1026.0 | |
| 20260903093017 | 77 | 0.0 | 0.0 | 0.00 | 0.00 | 0.00 | 70 | 1025.9 | |
| 20260903092017 | 77 | 0.0 | 0.0 | 0.00 | 0.00 | 0.00 | 70 | 1026.1 | |
| 20260903091017 | 77 | 0.0 | 0.0 | 0.00 | 0.00 | 0.00 | 70 | 1026.1 |